| time (UTC) | temp C | wind direction | speed KPH | gust KPH | rain 1hr cm | rain 24hr cm | rain mn cm | humidity % | barometer mb |
| 20260502181605 | 20 | 340 | 22.5 | 35.4 | 0.00 | 1.55 | 0.00 | 55 | 1020.7 |
| 20260502163057 | 18 | 44 | 20.9 | 32.2 | 0.00 | 1.70 | 0.00 | 69 | 1021.1 |
| 20260502161557 | 18 | 20 | 22.5 | 33.8 | 0.00 | 1.70 | 0.00 | 70 | 1020.9 |
| 20260502151612 | 17 | 20 | 24.1 | 38.6 | 0.00 | 1.96 | 0.00 | 76 | 1020.6 |
| 20260502150107 | 17 | 32 | 22.5 | 35.4 | 0.00 | 1.96 | 0.00 | 78 | 1020.5 |
| 20260502123105 | 14 | 51 | 20.9 | 33.8 | 0.00 | 2.24 | 0.00 | 83 | 1019.1 |
| 20260502121552 | 13 | 17 | 17.7 | 35.4 | 0.00 | 2.24 | 0.00 | 84 | 1018.8 |
| 20260502114552 | 13 | 33 | 16.1 | 33.8 | 0.00 | 2.24 | 0.00 | 84 | 1018.5 |
| 20260502113052 | 13 | 26 | 14.5 | 38.6 | 0.00 | 2.24 | 0.00 | 82 | 1018.0 |
| 20260502111554 | 13 | 30 | 22.5 | 32.2 | 0.00 | 2.24 | 0.00 | 82 | 1017.6 |
| 20260502110059 | 13 | 51 | 14.5 | 27.4 | 0.00 | 2.24 | 0.00 | 85 | 1017.4 |
| 20260502104557 | 13 | 360 | 14.5 | 27.4 | 0.00 | 2.24 | 0.00 | 86 | 1017.3 |
| 20260502103058 | 13 | 40 | 14.5 | 27.4 | 0.00 | 2.24 | 0.00 | 86 | 1017.3 |
| 20260502101616 | 13 | 54 | 12.9 | 25.7 | 0.00 | 2.24 | 0.00 | 87 | 1017.1 |
| 20260502100116 | 13 | 21 | 19.3 | 32.2 | 0.00 | 2.24 | 0.00 | 87 | 1016.7 |
| 20260502080107 | 14 | 49 | 22.5 | 38.6 | 0.00 | 2.24 | 0.00 | 88 | 1016.2 |
| 20260502064601 | 14 | 28 | 24.1 | 45.1 | 0.00 | 2.24 | 0.00 | 90 | 1015.9 |
| 20260502063105 | 13 | 55 | 27.4 | 43.5 | 0.00 | 2.24 | 0.00 | 92 | 1016.0 |
| 20260502061559 | 13 | 342 | 22.5 | 49.9 | 0.00 | 2.24 | 0.00 | 93 | 1015.9 |
| 20260502060057 | 13 | 34 | 32.2 | 43.5 | 0.00 | 2.24 | 0.00 | 93 | 1015.6 |
| 20260502054555 | 13 | 25 | 29.0 | 43.5 | 0.00 | 2.24 | 0.00 | 93 | 1015.5 |
| 20260502053112 | 13 | 346 | 24.1 | 43.5 | 0.00 | 2.24 | 0.00 | 94 | 1015.7 |
| 20260502051554 | 13 | 63 | 27.4 | 43.5 | 0.00 | 2.24 | 0.00 | 94 | 1015.3 |
| 20260502050054 | 14 | 325 | 22.5 | 45.1 | 0.00 | 2.24 | 0.00 | 95 | 1015.7 |
| 20260502044555 | 13 | 34 | 22.5 | 40.2 | 0.00 | 2.24 | 2.24 | 94 | 1015.5 |
| 20260502043106 | 14 | 40 | 20.9 | 38.6 | 0.00 | 2.24 | 2.24 | 94 | 1015.5 |
| 20260502041554 | 15 | 60 | 17.7 | 30.6 | 0.03 | 2.24 | 2.24 | 94 | 1015.2 |
| 20260502040054 | 15 | 317 | 22.5 | 33.8 | 0.08 | 2.24 | 2.24 | 94 | 1015.3 |
| 20260502034556 | 15 | 315 | 22.5 | 35.4 | 0.08 | 2.24 | 2.24 | 94 | 1015.0 |
| 20260502033103 | 15 | 17 | 19.3 | 35.4 | 0.15 | 2.24 | 2.24 | 95 | 1014.8 |
| 20260502031555 | 15 | 9 | 16.1 | 32.2 | 0.18 | 2.21 | 2.21 | 94 | 1014.6 |
| 20260502030100 | 15 | 17 | 16.1 | 33.8 | 0.18 | 2.16 | 2.16 | 94 | 1014.5 |
| 20260502024555 | 16 | 14 | 14.5 | 32.2 | 0.33 | 2.16 | 2.16 | 95 | 1014.2 |
| 20260502023110 | 16 | 327 | 19.3 | 30.6 | 0.33 | 2.08 | 2.08 | 94 | 1014.7 |
| 20260502021556 | 16 | 325 | 16.1 | 30.6 | 0.38 | 2.03 | 2.03 | 95 | 1013.8 |
| 20260502020058 | 16 | 20 | 17.7 | 27.4 | 0.41 | 1.98 | 1.98 | 94 | 1013.7 |
| 20260502014600 | 16 | 31 | 17.7 | 33.8 | 0.25 | 1.83 | 1.83 | 94 | 1013.4 |
| 20260502013059 | 16 | 17 | 20.9 | 30.6 | 0.18 | 1.75 | 1.75 | 93 | 1012.8 |
| 20260502011559 | 16 | 328 | 19.3 | 33.8 | 0.08 | 1.65 | 1.65 | 93 | 1012.8 |
| 20260502010057 | 16 | 25 | 24.1 | 46.7 | 0.00 | 1.57 | 1.57 | 93 | 1012.4 |
| 20260502004609 | 16 | 14 | 29.0 | 49.9 | 0.00 | 1.57 | 1.57 | 93 | 1011.5 |
| 20260502003054 | 17 | 36 | 29.0 | 43.5 | 0.00 | 1.57 | 1.57 | 94 | 1010.6 |
| 20260502001559 | 16 | 41 | 25.7 | 43.5 | 0.00 | 1.57 | 1.57 | 93 | 1009.8 |
| 20260502000059 | 16 | 24 | 25.7 | 40.2 | 0.00 | 1.57 | 1.57 | 94 | 1010.8 |
| 20260501234601 | 16 | 344 | 25.7 | 40.2 | 0.03 | 1.57 | 1.57 | 94 | 1010.0 |
| 20260501233058 | 16 | 38 | 25.7 | 46.7 | 0.03 | 1.57 | 1.57 | 94 | 1009.3 |
| 20260501231604 | 17 | 46 | 29.0 | 41.8 | 0.03 | 1.57 | 1.57 | 94 | 1009.9 |
| 20260501230100 | 17 | 30 | 27.4 | 43.5 | 0.03 | 1.57 | 1.57 | 93 | 1009.6 |
| 20260501224608 | 17 | 18 | 27.4 | 43.5 | 0.10 | 1.55 | 1.55 | 94 | 1010.1 |
| 20260501223111 | 17 | 42 | 17.7 | 29.0 | 0.33 | 1.55 | 1.55 | 94 | 1010.8 |
| 20260501221625 | 18 | 42 | 20.9 | 37.0 | 0.36 | 1.55 | 1.55 | 94 | 1010.4 |
| 20260501220055 | 17 | 57 | 25.7 | 46.7 | 0.36 | 1.55 | 1.55 | 94 | 1009.3 |
| 20260501214557 | 17 | 53 | 25.7 | 46.7 | 0.33 | 1.45 | 1.45 | 93 | 1009.2 |
| 20260501213113 | 17 | 50 | 24.1 | 46.7 | 0.13 | 1.22 | 1.22 | 93 | 1011.3 |
| 20260501211555 | 17 | 27 | 30.6 | 41.8 | 0.28 | 1.19 | 1.19 | 93 | 1009.8 |
| 20260501210059 | 17 | 60 | 19.3 | 33.8 | 0.36 | 1.17 | 1.17 | 93 | 1010.3 |
| 20260501204559 | 18 | 51 | 20.9 | 32.2 | 0.30 | 1.12 | 1.12 | 93 | 1010.0 |
| 20260501203105 | 17 | 34 | 24.1 | 37.0 | 0.30 | 1.09 | 1.09 | 92 | 1009.1 |
| 20260501201554 | 18 | 345 | 17.7 | 35.4 | 0.13 | 0.91 | 0.91 | 91 | 1010.0 |
| 20260501200055 | 18 | 31 | 20.9 | 46.7 | 0.10 | 0.81 | 0.81 | 91 | 1009.3 |
| 20260501194555 | 18 | 41 | 22.5 | 40.2 | 0.13 | 0.81 | 0.81 | 91 | 1009.4 |
| 20260501193052 | 18 | 51 | 24.1 | 35.4 | 0.10 | 0.79 | 0.79 | 91 | 1009.7 |
| 20260501191558 | 18 | 58 | 16.1 | 29.0 | 0.10 | 0.79 | 0.79 | 91 | 1010.0 |
| 20260501190053 | 18 | 19 | 17.7 | 38.6 | 0.03 | 0.71 | 0.71 | 89 | 1010.5 |
| 20260501184608 | 18 | 32 | 24.1 | 41.8 | 0.00 | 0.69 | 0.69 | 89 | 1009.9 |
| 20260501183058 | 18 | 69 | 19.3 | 38.6 | 0.00 | 0.69 | 0.69 | 89 | 1009.8 |